[[{"header":{"parameterUnit":"m.s-1","parameterCategory":1,"la1":30.2991,"la2":30.254,"lo1":-89.0895,"lo2":-89.0444,"dy":0.0017,"dx":0.0017,"nx":28,"ny":28,"refTime":"2026-02-14T09:00:00:Z","depth":0,"parameterNumber":2,"parameterNumberName":"U-component_of_WINDS"},"data":[0,0,0,0,0,0,0,0,0,0,0,0,0,0,0,0,0,0,0,0,0,0,0,0,0,0,0,0,0,0,0,0,0,0,0,0,0,0,0,0,0,0,0,0,0,0,0,0,0,0,0,0,0,0,0,0,0,0,-6.1154,-6.1155,0,-6.1227,-6.1228,-6.1229,-6.1134,-6.1131,-6.1127,-6.1124,-6.1197,-6.1202,-6.1207,0,0,0,0,0,0,0,0,0,0,0,0,0,-6.0932,-6.0936,-6.1154,-6.1155,-6.1156,-6.1227,-6.1228,-6.1229,-6.1135,-6.1131,-6.1127,-6.1123,-6.1195,-6.1201,-6.1207,0,0,0,0,0,0,0,0,0,0,0,0,0,-6.1019,-6.0938,-6.1154,-6.1118,-6.1115,-6.1227,-6.1228,-6.1229,-6.1136,-6.1131,-6.1126,-6.1121,-6.1193,-6.12,-6.1208,-6.1358,0,0,-6.1232,-6.1235,0,0,0,0,0,0,0,0,-6.1014,-6.1027,-6.1122,-6.112,-6.1118,-6.1167,-6.1176,-6.1273,-6.1137,-6.1128,-6.1124,-6.1118,-6.1191,-6.1198,-6.1223,-6.1362,-6.1365,-6.1232,-6.1237,-6.124,-6.1242,0,0,0,0,0,0,0,-6.1008,-6.1023,-6.1183,-6.1124,-6.1121,-6.1097,-6.1104,-6.1194,-6.1187,-6.1128,-6.1122,-6.1132,-6.1188,-6.1216,-6.1224,-6.1366,-6.1232,-6.1239,-6.1244,-6.1247,-6.1633,-6.1638,0,0,0,0,0,0,-6.1007,-6.1019,-6.1181,-6.1185,-6.1052,-6.1105,-6.1113,-6.1156,-6.1186,-6.1186,-6.1136,-6.1127,-6.1205,-6.1215,-6.1226,-6.1404,-6.124,-6.1247,-6.1252,-6.1627,-6.1634,-6.164,0,0,0,0,0,0,-6.1002,-6.1022,-6.1178,-6.11,-6.1118,-6.1115,-6.1164,-6.116,-6.1187,-6.1192,-6.119,-6.1165,-6.1202,-6.1215,-6.1327,-6.1405,-6.1251,-6.1258,-6.162,-6.1629,-6.1637,-6.1761,0,0,0,0,0,0,-6.0996,-6.1021,-6.1078,-6.1102,-6.1123,-6.1277,-6.1169,-6.1165,-6.1201,-6.119,-6.1219,-6.1219,-6.1199,-6.1316,-6.1334,-6.1413,-6.1264,-6.1613,-6.1624,-6.1634,-6.175,-6.1773,-6.1792,0,0,0,0,0,-6.0989,-6.1109,-6.1081,-6.1101,-6.1194,-6.1282,-6.1294,-6.1269,-6.1208,-6.1265,-6.1268,-6.1218,-6.1395,-6.1328,-6.1348,-6.143,-6.1608,-6.1621,-6.1633,-6.174,-6.1768,-6.1792,0,0,0,0,0,0,-6.1092,-6.1112,-6.1081,-6.1213,-6.1247,-6.1266,-6.1337,-6.1299,-6.135,-6.1337,-6.1304,-6.1311,-6.143,-6.1441,-6.1367,-6.1578,-6.1491,-6.1508,-6.1565,-6.1592,-6.1613,-6.1606,-6.127,0,0,0,0,0,-6.1131,-6.1202,-6.1214,-6.133,-6.1349,-6.1341,-6.1378,-6.1356,-6.1389,-6.1403,-6.1413,-6.1447,-6.151,-6.1552,-6.161,-6.1752,-6.1757,-6.1819,-6.184,-6.1858,-6.1872,-6.1948,-6.1976,-6.1682,-6.1681,-6.1681,0,0,-6.1211,-6.123,-6.1276,-6.1351,-6.1375,-6.1448,-6.1353,-6.1434,-6.1487,-6.1414,-6.152,-6.153,-6.1565,-6.1693,-6.1749,-6.1706,-6.1955,-6.1874,-6.1888,-6.1893,-6.1964,-6.1992,-6.2017,-6.169,-6.1689,-6.1687,0,0,-6.1393,-6.1415,-6.1514,-6.1541,-6.1578,-6.1572,-6.1597,-6.1622,-6.1626,-6.1732,-6.1679,-6.1743,-6.1852,-6.188,-6.1908,-6.2105,-6.2059,-6.2125,-6.2234,-6.2309,-6.2332,-6.2352,-6.2421,-6.2447,-6.214,-6.214,-6.214,0,-6.1487,-6.1595,-6.1569,-6.1655,-6.1689,-6.1629,-6.1729,-6.1755,-6.181,-6.1835,-6.1786,-6.1923,-6.1943,-6.2076,-6.2124,-6.2149,-6.2175,-6.2119,-6.2331,-6.2351,-6.237,-6.2435,-6.2461,-6.2147,-6.2147,-6.2146,-6.2145,0,-6.1708,-6.1785,-6.186,-6.1916,-6.1959,-6.2052,-6.2039,-6.2087,-6.2063,-6.2062,-6.2171,-6.2193,-6.2255,-6.2286,-6.2262,-6.2416,-6.2388,-6.2336,-6.2248,-6.2406,-6.2467,-6.2492,-6.2158,-6.2156,-6.2153,-6.2151,0,0,-6.1954,-6.1997,-6.2025,-6.205,-6.2089,-6.2147,-6.2237,-6.2299,-6.234,-6.2381,-6.2455,-6.255,-6.2503,-6.2535,-6.2515,-6.2581,-6.2735,-6.252,-6.2521,-6.2558,-6.2905,-6.2942,-6.2972,-6.2707,-6.2711,-6.2715,-6.2901,0,-6.2136,-6.2292,-6.2273,-6.2422,-6.2492,-6.2438,-6.2516,-6.2549,-6.2552,-6.2612,-6.2615,-6.2682,-6.2615,-6.2635,-6.2698,-6.2702,-6.2803,-6.2689,-6.2774,-6.2777,-6.2764,-6.3004,-6.3043,-6.3218,-6.2925,-6.2929,-6.2932,0,-6.2367,-6.2418,-6.2575,-6.2604,-6.2633,-6.2704,-6.2759,-6.2818,-6.2854,-6.2851,-6.289,-6.2858,-6.2948,-6.2861,-6.2985,-6.2908,-6.2942,-6.295,-6.2956,-6.2961,-6.2862,-6.3013,-6.3273,-6.3298,-6.297,-6.2967,-6.2964,0,-6.2529,-6.2637,-6.2744,-6.2768,-6.2805,-6.2856,-6.2874,-6.2905,-6.2944,-6.2994,-6.3018,-6.3078,-6.3109,-6.3156,-6.3141,-6.3079,-6.3268,-6.3179,-6.3268,-6.3268,-6.3307,-6.3304,-6.3574,-6.3334,-6.3333,-6.3333,-6.3332,0,-6.2732,-6.2829,-6.2818,-6.2884,-6.2992,-6.297,-6.3078,-6.3089,-6.3118,-6.3185,-6.3142,-6.3206,-6.3184,-6.3247,-6.3236,-6.334,-6.3355,-6.3355,-6.3351,-6.3358,-6.3358,-6.3377,-6.3364,-6.334,-6.3338,-6.3337,-6.3336,0,-6.2929,-6.2926,-6.3039,-6.3067,-6.3076,-6.3155,-6.3178,-6.324,-6.3241,-6.3327,-6.3345,-6.3347,-6.3419,-6.341,-6.349,-6.3483,-6.3612,-6.3594,-6.36,-6.3595,-6.3683,-6.3674,-6.3973,-6.401,-6.3748,-6.375,-6.3752,0,-6.3057,-6.3132,-6.3168,-6.3211,-6.3233,-6.3302,-6.3342,-6.3324,-6.3368,-6.3416,-6.3473,-6.3541,-6.3594,-6.3712,-6.372,-6.3781,-6.3763,-6.3864,-6.3771,-6.3776,-6.3762,-6.3757,-6.3764,-6.3881,-6.3884,-6.3886,-6.3888,0,-6.3285,-6.3281,-6.3341,-6.3402,-6.3452,-6.3498,-6.354,-6.3577,-6.3564,-6.3615,-6.3689,-6.3731,-6.3814,-6.3882,-6.394,-6.3958,-6.3921,-6.3918,-6.3941,-6.3947,-6.3947,-6.3947,-6.3647,-6.391,-6.3908,-6.3906,-6.3905,-6.3904,-6.3451,-6.3514,-6.355,-6.3619,-6.365,-6.3691,-6.3751,-6.3761,-6.3823,-6.3889,-6.3876,-6.3959,-6.3994,-6.4069,-6.4094,-6.4158,-6.4121,-6.4155,-6.4163,-6.4172,-6.4181,-6.394,-6.4169,-6.4168,-6.4168,-6.4167,-6.4167,0,-6.3674,-6.3696,-6.376,-6.3821,-6.3876,-6.3839,-6.3885,-6.3932,-6.4006,-6.4044,-6.4098,-6.4184,-6.425,-6.4265,-6.4329,-6.4378,-6.4362,-6.4395,-6.439,-6.4394,-6.4211,-6.4184,-6.4406,-6.4406,-6.4406,-6.4406,-6.4406,-6.4406,-6.3797,-6.3903,-6.3903,-6.4024,-6.4045,-6.4127,-6.4156,-6.4194,-6.4223,-6.4321,-6.4377,-6.4387,-6.4415,-6.4481,-6.4541,-6.4544,-6.4568,-6.4607,-6.4603,-6.4431,-6.4407,-6.4384,-6.4358,-6.4614,-6.4614,-6.478,-6.4782,-6.4783]},{"header":{"parameterUnit":"m.s-1","parameterCategory":1,"la1":30.2991,"la2":30.254,"lo1":-89.0895,"lo2":-89.0444,"dy":0.0017,"dx":0.0017,"nx":28,"ny":28,"refTime":"2026-02-14T09:00:00:Z","depth":0,"parameterNumber":3,"parameterNumberName":"V-component_of_WINDS"},"data":[0,0,0,0,0,0,0,0,0,0,0,0,0,0,0,0,0,0,0,0,0,0,0,0,0,0,0,0,0,0,0,0,0,0,0,0,0,0,0,0,0,0,0,0,0,0,0,0,0,0,0,0,0,0,0,0,0,0,2.0389,2.039,0,2.05,2.0502,2.0503,2.0569,2.0569,2.057,2.057,2.0681,2.0683,2.0686,0,0,0,0,0,0,0,0,0,0,0,0,0,2.0233,2.0236,2.0389,2.0391,2.0392,2.05,2.0502,2.0503,2.0569,2.0569,2.057,2.057,2.068,2.0683,2.0686,0,0,0,0,0,0,0,0,0,0,0,0,0,2.0318,2.0237,2.0389,2.0438,2.0443,2.05,2.0502,2.0504,2.0569,2.0569,2.057,2.057,2.0679,2.0682,2.0686,2.0702,0,0,2.0699,2.07,0,0,0,0,0,0,0,0,2.0313,2.0324,2.0429,2.0435,2.0441,2.0521,2.0487,2.057,2.0569,2.0521,2.057,2.0571,2.0627,2.0635,2.0655,2.0707,2.0712,2.0699,2.0701,2.0703,2.0704,0,0,0,0,0,0,0,2.0307,2.032,2.0433,2.0431,2.0438,2.0454,2.0467,2.0503,2.057,2.0525,2.053,2.0543,2.063,2.0651,2.0658,2.0713,2.0699,2.0702,2.0705,2.0706,2.0787,2.0787,0,0,0,0,0,0,2.0294,2.0314,2.043,2.0436,2.0377,2.0457,2.0471,2.0495,2.057,2.0582,2.0542,2.0546,2.0644,2.0653,2.0662,2.0687,2.0703,2.0707,2.0709,2.0787,2.0787,2.0786,0,0,0,0,0,0,2.029,2.0304,2.0425,2.0377,2.0394,2.0459,2.0486,2.0497,2.0518,2.0583,2.0595,2.0551,2.0645,2.0657,2.0692,2.0692,2.0709,2.0712,2.0787,2.0787,2.0787,2.0736,0,0,0,0,0,0,2.0286,2.0302,2.0308,2.0377,2.0396,2.0453,2.0486,2.0499,2.0525,2.053,2.0594,2.0605,2.0646,2.0686,2.0696,2.0698,2.0715,2.0788,2.0787,2.0787,2.0738,2.0734,2.073,0,0,0,0,0,2.028,2.0288,2.0308,2.0322,2.0405,2.0453,2.0464,2.0512,2.0525,2.0532,2.0574,2.0603,2.069,2.0689,2.0701,2.0704,2.0788,2.0787,2.0787,2.074,2.0735,2.0731,0,0,0,0,0,0,2.0216,2.0298,2.0321,2.0352,2.0395,2.0464,2.0475,2.0504,2.0544,2.0547,2.0604,2.0617,2.0648,2.068,2.0677,2.0724,2.0743,2.0744,2.0703,2.0699,2.0695,2.0687,2.0719,0,0,0,0,0,2.0206,2.0239,2.0308,2.0328,2.0349,2.0408,2.0431,2.0464,2.0511,2.0529,2.0574,2.0617,2.0655,2.0679,2.0716,2.0743,2.0759,2.0751,2.0747,2.0744,2.0745,2.0764,2.0762,2.0785,2.0785,2.0785,0,0,2.0184,2.0233,2.025,2.0317,2.0355,2.0388,2.0423,2.0455,2.048,2.0534,2.0571,2.0606,2.0658,2.069,2.0707,2.0717,2.0742,2.0743,2.074,2.0743,2.0763,2.0761,2.0759,2.0784,2.0784,2.0784,0,0,2.0163,2.0202,2.0225,2.0263,2.0321,2.036,2.0366,2.0431,2.0457,2.0496,2.0537,2.0568,2.0631,2.0668,2.0694,2.069,2.072,2.0701,2.0681,2.0699,2.0697,2.0696,2.0696,2.0696,2.0702,2.0702,2.0702,0,2.0128,2.018,2.0233,2.0264,2.0293,2.0345,2.0369,2.0403,2.0469,2.0488,2.05,2.0582,2.0621,2.0664,2.0663,2.0683,2.0691,2.0694,2.0694,2.0693,2.0692,2.0693,2.0693,2.0699,2.0699,2.07,2.07,0,2.0137,2.0172,2.0183,2.0249,2.0279,2.0306,2.0363,2.0387,2.0419,2.0457,2.0498,2.0547,2.0597,2.061,2.0639,2.0657,2.0663,2.0683,2.0703,2.0687,2.0689,2.0689,2.0696,2.0696,2.0697,2.0698,0,0,2.0075,2.0172,2.0176,2.0207,2.0276,2.0304,2.0335,2.0386,2.0407,2.0451,2.0479,2.0533,2.0553,2.0584,2.0618,2.0634,2.0631,2.0653,2.0655,2.0648,2.0656,2.064,2.064,2.065,2.0651,2.0651,2.0652,0,2.0065,2.0123,2.0173,2.0213,2.0248,2.0299,2.0326,2.0371,2.0409,2.0444,2.0485,2.0523,2.0546,2.0566,2.0583,2.0627,2.0633,2.0628,2.0677,2.0678,2.0663,2.0641,2.0624,2.0622,2.0653,2.0653,2.0653,0,2.0059,2.0105,2.0149,2.0218,2.0234,2.0257,2.031,2.0342,2.0395,2.0421,2.0457,2.0495,2.053,2.0546,2.0596,2.0592,2.0615,2.064,2.0641,2.0648,2.0665,2.0648,2.0623,2.0623,2.0654,2.0654,2.0654,0,2.0013,2.0084,2.0121,2.0146,2.0226,2.0242,2.0276,2.033,2.0359,2.0404,2.0424,2.0472,2.0498,2.0535,2.0584,2.0591,2.063,2.065,2.0654,2.0652,2.0659,2.0658,2.0639,2.0673,2.0673,2.0673,2.0673,0,1.9996,2.0021,2.0102,2.0124,2.0155,2.0212,2.0241,2.0279,2.0327,2.0358,2.0405,2.0433,2.0497,2.0533,2.0572,2.0609,2.062,2.0642,2.0653,2.0639,2.0636,2.0655,2.0657,2.0673,2.0673,2.0673,2.0673,0,1.9948,2.0003,2.0047,2.0121,2.014,2.0159,2.0222,2.0247,2.0288,2.0327,2.0339,2.0404,2.0449,2.0503,2.0564,2.0591,2.0624,2.0639,2.0607,2.0613,2.0614,2.0614,2.0607,2.0609,2.064,2.064,2.0639,0,1.9934,1.9955,2.0033,2.0058,2.0091,2.013,2.0161,2.0219,2.0248,2.0313,2.0329,2.0378,2.0421,2.0491,2.0543,2.0591,2.0608,2.0602,2.0615,2.0601,2.0609,2.0608,2.0611,2.0598,2.0597,2.0597,2.0597,0,1.9904,1.9931,1.9973,2.0026,2.0062,2.0106,2.0151,2.0169,2.0236,2.0267,2.0315,2.0348,2.0414,2.0462,2.0518,2.0553,2.0586,2.0592,2.0596,2.0582,2.0564,2.0575,2.0598,2.0592,2.0592,2.0593,2.0593,2.0593,1.9874,1.9896,1.9955,2.0002,2.0043,2.0085,2.0113,2.0159,2.02,2.0259,2.029,2.0338,2.0393,2.0472,2.0506,2.0544,2.0555,2.056,2.0562,2.0562,2.0559,2.0557,2.0554,2.0554,2.0554,2.0555,2.0555,0,1.9848,1.9889,1.9931,1.9995,2.0032,2.0063,2.0116,2.0145,2.0186,2.0236,2.0278,2.0334,2.0382,2.0439,2.0492,2.0511,2.0528,2.0523,2.0522,2.053,2.0545,2.0537,2.0509,2.0509,2.0509,2.0509,2.0509,2.0509,1.9838,1.9879,1.9913,1.9975,2.0016,2.0065,2.0093,2.0133,2.0173,2.0234,2.0275,2.0313,2.0366,2.0423,2.0469,2.0485,2.0502,2.0493,2.0513,2.0525,2.0529,2.0533,2.0526,2.0496,2.0496,2.0496,2.0496,2.0495]}]]